Location: York
(31.8935°S, 116.7682°E)
Time: 18:39:41
(UTC+08:00)

DX 1 - Pass Details

Date: 30 July 2021
Orbit: 618 x 631 km, 98.4° (Epoch: 15 September)

Event Time Altitude Azimuth Distance (km) Brightness Sun altitude
Rises 18:36:12 0° 32° (NNE) 2,894 ? -13.0°
Reaches altitude 10° 18:38:29 10° 40° (NE) 1,994 ? -13.5°
Maximum altitude 18:42:30 38° 107° (ESE) 964 ? -14.3°
Drops below altitude 10° 18:46:33 10° 175° (S) 2,013 ? -15.2°
Sets 18:48:51 0° 182° (S) 2,926 ? -15.7°
